Inquirer Daily News

Weather

Get conditions and forecasts for any City, State, ZIP code or Country:  
Trenton, NJ
on Thursday, December 13, 2012

Thursday
Previous Day Next Day
Daily Summary
 ActualAverageRecord
Temperature
Mean Temperature °F 36°F  
Max Temperature 47°F 44°F 65°F (1990)
Min Temperature 28°F 28°F 6°F (1988)
Degree Days
Heating Degree Days 27 29  
Month to date heating degree days 267 350  
Since 1 July heating degree days 1274 1326  
Cooling Degree Days 0 0  
Month to date cooling degree days 0 0  
Year to date cooling degree days 1234 965  
Moisture
Dew Point 23°F   
Average Humidity 55    
Maximum Humidity 72    
Minimum Humidity 37    
Precipitation
Precipitation 0.00 in 0.14 in 2.30 in (1909)
Month to date precipitation 0.83 1.79  
Year to date precipitation 34.06 44.53  
Wind
Wind Speed 4 mph   
Max Wind Speed 12 mph   
Max Gust Speed 15 mph   
Visibility 10 miles   
Events     

Key: T is trace of precipitation, MM is missing value
Source: NWS Daily Summary
Time(EST)TemperatureDew PointHumidity Pressure Visibility Wind DirectionWind SpeedGust SpeedPrecipitationEvents Conditions
12:53 AM 33.1°F 25.0°F 72% 30.39 in 10.0 miles NNE 4.6 mph - N/A   Clear
1:53 AM 34.0°F 24.1°F 67% 30.39 in 10.0 miles NNE 5.8 mph - N/A   Clear
2:53 AM 33.1°F 24.1°F 70% 30.40 in 10.0 miles North 6.9 mph - N/A   Clear
3:53 AM 34.0°F 24.1°F 67% 30.40 in 10.0 miles NNE 5.8 mph - N/A   Clear
4:53 AM 34.0°F 24.1°F 67% 30.40 in 10.0 miles North 5.8 mph - N/A   Clear
5:53 AM 32.0°F 23.0°F 69% 30.41 in 10.0 miles North 3.5 mph - N/A   Clear
6:53 AM 30.9°F 23.0°F 72% 30.45 in 10.0 miles NNW 3.5 mph - N/A   Clear
7:53 AM 32.0°F 23.0°F 69% 30.44 in 10.0 miles North 5.8 mph - N/A   Clear
8:53 AM 36.0°F 24.1°F 62% 30.43 in 10.0 miles North 6.9 mph - N/A   Clear
9:53 AM 42.1°F 24.1°F 49% 30.44 in 10.0 miles ENE 5.8 mph - N/A   Clear
10:53 AM 44.1°F 23.0°F 43% 30.44 in 10.0 miles East 8.1 mph - N/A   Clear
11:53 AM 45.0°F 23.0°F 42% 30.41 in 10.0 miles East 8.1 mph - N/A   Clear
12:53 PM 45.0°F 23.0°F 42% 30.39 in 10.0 miles ESE 6.9 mph - N/A   Clear
1:53 PM 46.0°F 21.9°F 39% 30.38 in 10.0 miles NE 4.6 mph - N/A   Clear
2:53 PM 46.0°F 23.0°F 40% 30.37 in 10.0 miles Calm Calm - N/A   Clear
3:53 PM 45.0°F 21.0°F 39% 30.36 in 10.0 miles Calm Calm - N/A   Clear
4:53 PM 41.0°F 21.9°F 47% 30.36 in 10.0 miles Calm Calm - N/A   Clear
6:53 PM 34.0°F 21.9°F 61% 30.37 in 10.0 miles NNW 4.6 mph - N/A   Clear
7:53 PM 33.1°F 23.0°F 66% 30.37 in 10.0 miles NNW 4.6 mph - N/A   Clear
8:53 PM 32.0°F 23.0°F 69% 30.34 in 10.0 miles Calm Calm - N/A   Clear
9:53 PM 30.9°F 23.0°F 72% 30.33 in 10.0 miles Calm Calm - N/A   Clear
10:53 PM 30.0°F 23.0°F 75% 30.33 in 10.0 miles Calm Calm - N/A   Clear
11:53 PM 28.9°F 23.0°F 78% 30.31 in 10.0 miles Calm Calm - N/A   Clear
Astronomy
Sunrise:07:13 AM (EST) Moon Rise:07:19 AM (EST)12/13
Sunset:04:33 PM (EST) Moon Set:05:13 PM (EST)12/13
Moon Phase
Dec. 13 Dec. 20 Dec. 28 Jan. 04 Jan. 11

Copyright © 2014 The Weather Underground, Inc.